Time,TemperatureF,DewpointF,PressureIn,WindDirection,WindDirectionDegrees,WindSpeedMPH,WindSpeedGustMPH,Humidity,HourlyPrecipIn,Conditions,Clouds,dailyrainin,SoftwareType,DateUTC
2013-02-06 00:04:00,37.7,33.0,30.03,NNE,13,1.0,2.0,84,0.00,,,0.05,weatherlink.com 1.10,2013-02-06 05:04:00,
2013-02-06 00:19:00,37.7,33.0,30.04,WNW,298,1.0,4.0,83,0.00,,,0.05,weatherlink.com 1.10,2013-02-06 05:19:00,
2013-02-06 00:34:00,37.7,33.0,30.05,NNW,346,0.0,4.0,83,0.00,,,0.05,weatherlink.com 1.10,2013-02-06 05:34:00,
2013-02-06 00:49:00,37.4,33.0,30.05,NW,317,2.0,2.0,83,0.00,,,0.05,weatherlink.com 1.10,2013-02-06 05:49:00,
2013-02-06 01:04:00,37.2,33.0,30.06,North,10,3.0,4.0,83,0.00,,,0.05,weatherlink.com 1.10,2013-02-06 06:04:00,
2013-02-06 01:19:00,36.9,32.0,30.06,North,355,1.0,4.0,83,0.00,,,0.05,weatherlink.com 1.10,2013-02-06 06:19:00,
2013-02-06 01:35:00,36.8,32.0,30.07,NNW,342,0.0,5.0,82,0.00,,,0.05,weatherlink.com 1.10,2013-02-06 06:35:00,
2013-02-06 01:50:00,36.6,32.0,30.07,North,5,1.0,5.0,82,0.00,,,0.05,weatherlink.com 1.10,2013-02-06 06:50:00,
2013-02-06 02:05:00,36.6,32.0,30.08,NNE,22,1.0,3.0,82,0.00,,,0.05,weatherlink.com 1.10,2013-02-06 07:05:00,
2013-02-06 02:20:00,36.4,32.0,30.09,South,184,0.0,2.0,83,0.00,,,0.05,weatherlink.com 1.10,2013-02-06 07:20:00,
2013-02-06 02:35:00,36.2,32.0,30.09,NE,43,0.0,2.0,83,0.00,,,0.05,weatherlink.com 1.10,2013-02-06 07:35:00,
2013-02-06 02:50:00,36.0,31.0,30.09,North,11,0.0,2.0,83,0.01,,,0.06,weatherlink.com 1.10,2013-02-06 07:50:00,
2013-02-06 03:05:00,35.9,32.0,30.09,NW,313,0.0,0.0,84,0.01,,,0.06,weatherlink.com 1.10,2013-02-06 08:05:00,
2013-02-06 03:20:00,35.9,32.0,30.10,NNW,329,0.0,1.0,84,0.01,,,0.06,weatherlink.com 1.10,2013-02-06 08:20:00,
2013-02-06 03:35:00,35.7,31.0,30.11,NNW,329,0.0,0.0,84,0.01,,,0.06,weatherlink.com 1.10,2013-02-06 08:35:00,
2013-02-06 03:50:00,35.9,31.0,30.11,NNW,327,0.0,1.0,83,0.00,,,0.06,weatherlink.com 1.10,2013-02-06 08:50:00,
2013-02-06 04:05:00,35.8,31.0,30.12,WNW,286,0.0,1.0,83,0.00,,,0.06,weatherlink.com 1.10,2013-02-06 09:05:00,
2013-02-06 04:20:00,35.7,31.0,30.13,WNW,286,2.0,2.0,84,0.00,,,0.06,weatherlink.com 1.10,2013-02-06 09:20:00,
2013-02-06 04:35:00,35.5,31.0,30.13,North,5,1.0,4.0,83,0.00,,,0.06,weatherlink.com 1.10,2013-02-06 09:35:00,
2013-02-06 04:50:00,35.4,31.0,30.13,NNW,334,1.0,3.0,83,0.00,,,0.06,weatherlink.com 1.10,2013-02-06 09:50:00,
2013-02-06 05:05:00,35.2,31.0,30.15,NNW,334,0.0,2.0,84,0.00,,,0.06,weatherlink.com 1.10,2013-02-06 10:05:00,
2013-02-06 05:20:00,35.0,31.0,30.16,North,355,0.0,3.0,84,0.00,,,0.06,weatherlink.com 1.10,2013-02-06 10:20:00,
2013-02-06 05:35:00,34.9,30.0,30.15,WNW,282,0.0,5.0,83,0.00,,,0.06,weatherlink.com 1.10,2013-02-06 10:35:00,
2013-02-06 05:50:00,34.7,30.0,30.16,WNW,282,1.0,1.0,84,0.00,,,0.06,weatherlink.com 1.10,2013-02-06 10:50:00,
2013-02-06 06:05:00,34.6,30.0,30.16,North,5,1.0,4.0,84,0.00,,,0.06,weatherlink.com 1.10,2013-02-06 11:05:00,
2013-02-06 06:20:00,34.4,30.0,30.17,NNW,347,3.0,5.0,85,0.00,,,0.06,weatherlink.com 1.10,2013-02-06 11:20:00,
2013-02-06 06:35:00,34.3,30.0,30.18,North,355,2.0,3.0,85,0.00,,,0.06,weatherlink.com 1.10,2013-02-06 11:35:00,
2013-02-06 06:50:00,34.1,30.0,30.19,North,9,0.0,3.0,85,0.00,,,0.06,weatherlink.com 1.10,2013-02-06 11:50:00,
2013-02-06 07:05:00,33.9,30.0,30.19,NNW,338,1.0,3.0,85,0.00,,,0.06,weatherlink.com 1.10,2013-02-06 12:05:00,
2013-02-06 07:20:00,33.8,30.0,30.19,NNW,337,1.0,3.0,85,0.00,,,0.06,weatherlink.com 1.10,2013-02-06 12:20:00,
2013-02-06 07:35:00,33.7,30.0,30.20,NNW,331,0.0,3.0,85,0.00,,,0.06,weatherlink.com 1.10,2013-02-06 12:35:00,
2013-02-06 07:50:00,33.5,30.0,30.21,NNW,331,0.0,2.0,86,0.00,,,0.06,weatherlink.com 1.10,2013-02-06 12:50:00,
2013-02-06 08:05:00,33.4,30.0,30.21,North,5,0.0,2.0,86,0.00,,,0.06,weatherlink.com 1.10,2013-02-06 13:05:00,
2013-02-06 08:20:00,33.2,29.0,30.22,North,350,0.0,4.0,85,0.00,,,0.06,weatherlink.com 1.10,2013-02-06 13:20:00,
2013-02-06 08:35:00,33.2,29.0,30.23,North,355,0.0,3.0,84,0.00,,,0.06,weatherlink.com 1.10,2013-02-06 13:35:00,
2013-02-06 08:50:00,33.2,29.0,30.23,North,355,1.0,2.0,84,0.00,,,0.06,weatherlink.com 1.10,2013-02-06 13:50:00,
2013-02-06 09:05:00,33.3,29.0,30.23,North,355,1.0,2.0,85,0.00,,,0.06,weatherlink.com 1.10,2013-02-06 14:05:00,
2013-02-06 09:20:00,33.4,29.0,30.24,North,355,0.0,2.0,84,0.00,,,0.06,weatherlink.com 1.10,2013-02-06 14:20:00,
2013-02-06 09:35:00,33.5,29.0,30.25,North,5,0.0,3.0,84,0.00,,,0.06,weatherlink.com 1.10,2013-02-06 14:35:00,
2013-02-06 09:50:00,33.7,29.0,30.25,North,5,0.0,1.0,84,0.00,,,0.06,weatherlink.com 1.10,2013-02-06 14:50:00,
2013-02-06 10:05:00,33.9,29.0,30.24,North,5,1.0,2.0,83,0.00,,,0.06,weatherlink.com 1.10,2013-02-06 15:05:00,
2013-02-06 10:20:00,34.1,30.0,30.25,North,355,0.0,2.0,83,0.00,,,0.06,weatherlink.com 1.10,2013-02-06 15:20:00,
2013-02-06 10:35:00,33.8,29.0,30.26,NNW,345,1.0,3.0,83,0.00,,,0.06,weatherlink.com 1.10,2013-02-06 15:35:00,
2013-02-06 10:50:00,33.7,29.0,30.26,NNW,346,1.0,3.0,83,0.00,,,0.06,weatherlink.com 1.10,2013-02-06 15:50:00,
2013-02-06 11:05:00,33.8,29.0,30.26,North,350,0.0,4.0,82,0.00,,,0.06,weatherlink.com 1.10,2013-02-06 16:05:00,
2013-02-06 11:21:00,34.0,29.0,30.27,North,350,2.0,3.0,82,0.00,,,0.06,weatherlink.com 1.10,2013-02-06 16:21:00,
2013-02-06 11:36:00,34.4,29.0,30.27,North,351,0.0,2.0,82,0.00,,,0.06,weatherlink.com 1.10,2013-02-06 16:36:00,
2013-02-06 11:51:00,34.7,29.0,30.27,North,351,1.0,3.0,81,0.00,,,0.06,weatherlink.com 1.10,2013-02-06 16:51:00,
2013-02-06 12:06:00,35.1,29.0,30.27,North,355,0.0,2.0,79,0.00,,,0.06,weatherlink.com 1.10,2013-02-06 17:06:00,
2013-02-06 12:36:00,35.4,29.0,30.27,SE,146,0.0,1.0,78,0.00,,,0.06,weatherlink.com 1.10,2013-02-06 17:36:00,
2013-02-06 12:51:00,35.5,29.0,30.27,SSE,162,0.0,2.0,77,0.00,,,0.00,weatherlink.com 1.10,2013-02-06 17:51:00,
2013-02-06 13:06:00,35.6,29.0,30.27,SSE,163,0.0,1.0,77,0.00,,,0.00,weatherlink.com 1.10,2013-02-06 18:06:00,
2013-02-06 13:21:00,35.6,29.0,30.26,SSE,163,0.0,1.0,77,0.00,,,0.00,weatherlink.com 1.10,2013-02-06 18:21:00,
2013-02-06 13:36:00,36.0,30.0,30.26,North,5,0.0,3.0,78,0.00,,,0.00,weatherlink.com 1.10,2013-02-06 18:36:00,
2013-02-06 13:51:00,36.2,30.0,30.26,North,9,1.0,2.0,77,0.00,,,0.00,weatherlink.com 1.10,2013-02-06 18:51:00,
2013-02-06 14:06:00,36.2,29.0,30.26,North,5,0.0,3.0,76,0.00,,,0.00,weatherlink.com 1.10,2013-02-06 19:06:00,
2013-02-06 14:21:00,36.3,29.0,30.26,North,5,1.0,2.0,76,0.00,,,0.00,weatherlink.com 1.10,2013-02-06 19:21:00,
2013-02-06 14:36:00,36.6,30.0,30.25,NNW,329,0.0,2.0,76,0.00,,,0.00,weatherlink.com 1.10,2013-02-06 19:36:00,
2013-02-06 14:51:00,36.9,29.0,30.25,NNW,329,0.0,3.0,74,0.00,,,0.00,weatherlink.com 1.10,2013-02-06 19:51:00,
2013-02-06 15:06:00,37.1,30.0,30.26,NNW,329,0.0,1.0,74,0.00,,,0.00,weatherlink.com 1.10,2013-02-06 20:06:00,
2013-02-06 15:21:00,37.1,30.0,30.26,ENE,67,0.0,0.0,74,0.00,,,0.00,weatherlink.com 1.10,2013-02-06 20:21:00,
2013-02-06 15:36:00,37.3,30.0,30.25,SSW,213,0.0,3.0,74,0.00,,,0.00,weatherlink.com 1.10,2013-02-06 20:36:00,
2013-02-06 15:51:00,37.5,30.0,30.25,WNW,286,0.0,3.0,74,0.00,,,0.00,weatherlink.com 1.10,2013-02-06 20:51:00,
2013-02-06 16:06:00,37.4,30.0,30.25,South,180,0.0,2.0,75,0.00,,,0.00,weatherlink.com 1.10,2013-02-06 21:06:00,
2013-02-06 16:21:00,37.6,30.0,30.25,SSE,166,0.0,1.0,74,0.00,,,0.00,weatherlink.com 1.10,2013-02-06 21:21:00,
2013-02-06 16:36:00,37.6,30.0,30.26,SSE,167,0.0,2.0,73,0.00,,,0.00,weatherlink.com 1.10,2013-02-06 21:36:00,
2013-02-06 16:51:00,37.4,30.0,30.25,SSE,167,1.0,1.0,74,0.00,,,0.00,weatherlink.com 1.10,2013-02-06 21:51:00,
2013-02-06 17:06:00,37.3,30.0,30.25,SSE,167,0.0,1.0,75,0.00,,,0.00,weatherlink.com 1.10,2013-02-06 22:06:00,
2013-02-06 17:21:00,37.3,30.0,30.26,SSW,196,0.0,2.0,74,0.00,,,0.00,weatherlink.com 1.10,2013-02-06 22:21:00,
2013-02-06 17:36:00,37.1,30.0,30.26,SSW,196,0.0,0.0,76,0.00,,,0.00,weatherlink.com 1.10,2013-02-06 22:36:00,
2013-02-06 17:51:00,37.0,30.0,30.27,SSW,196,0.0,0.0,75,0.00,,,0.00,weatherlink.com 1.10,2013-02-06 22:51:00,
2013-02-06 18:06:00,37.0,30.0,30.28,SSW,196,0.0,1.0,75,0.00,,,0.00,weatherlink.com 1.10,2013-02-06 23:06:00,
2013-02-06 18:21:00,36.5,30.0,30.27,SSW,196,0.0,1.0,78,0.00,,,0.00,weatherlink.com 1.10,2013-02-06 23:21:00,
2013-02-06 18:36:00,36.0,30.0,30.26,SSW,196,0.0,0.0,79,0.00,,,0.00,weatherlink.com 1.10,2013-02-06 23:36:00,
2013-02-06 18:51:00,35.1,29.0,30.27,SSW,196,0.0,0.0,79,0.00,,,0.00,weatherlink.com 1.10,2013-02-06 23:51:00,
2013-02-06 19:06:00,34.3,29.0,30.26,SSW,196,0.0,0.0,81,0.00,,,0.00,weatherlink.com 1.10,2013-02-07 00:06:00,
2013-02-06 19:21:00,33.5,29.0,30.26,SSW,196,0.0,0.0,82,0.00,,,0.00,weatherlink.com 1.10,2013-02-07 00:21:00,
2013-02-06 19:36:00,32.9,28.0,30.26,SSW,196,0.0,0.0,83,0.00,,,0.00,weatherlink.com 1.10,2013-02-07 00:36:00,
2013-02-06 19:51:00,32.4,28.0,30.25,SSW,196,0.0,0.0,84,0.00,,,0.00,weatherlink.com 1.10,2013-02-07 00:51:00,
2013-02-06 20:06:00,31.9,28.0,30.24,SSW,196,0.0,1.0,85,0.00,,,0.00,weatherlink.com 1.10,2013-02-07 01:06:00,
2013-02-06 20:21:00,32.0,28.0,30.23,ESE,123,0.0,2.0,84,0.00,,,0.00,weatherlink.com 1.10,2013-02-07 01:21:00,
2013-02-06 20:36:00,31.6,28.0,30.23,ESE,123,0.0,0.0,85,0.00,,,0.00,weatherlink.com 1.10,2013-02-07 01:36:00,
2013-02-06 20:51:00,31.2,28.0,30.24,ESE,123,0.0,0.0,86,0.00,,,0.00,weatherlink.com 1.10,2013-02-07 01:51:00,
2013-02-06 21:06:00,30.9,27.0,30.23,ESE,123,0.0,0.0,86,0.00,,,0.00,weatherlink.com 1.10,2013-02-07 02:06:00,
2013-02-06 21:21:00,30.5,27.0,30.23,ESE,123,0.0,0.0,87,0.00,,,0.00,weatherlink.com 1.10,2013-02-07 02:21:00,
2013-02-06 21:36:00,30.2,27.0,30.23,ESE,123,0.0,0.0,88,0.00,,,0.00,weatherlink.com 1.10,2013-02-07 02:36:00,
2013-02-06 21:51:00,30.0,27.0,30.24,ESE,123,0.0,0.0,88,0.00,,,0.00,weatherlink.com 1.10,2013-02-07 02:51:00,
2013-02-06 22:06:00,29.9,27.0,30.25,ESE,123,0.0,0.0,88,0.00,,,0.00,weatherlink.com 1.10,2013-02-07 03:06:00,
2013-02-06 22:22:00,29.6,27.0,30.25,ESE,123,0.0,0.0,89,0.00,,,0.00,weatherlink.com 1.10,2013-02-07 03:22:00,
2013-02-06 22:37:00,29.6,27.0,30.25,ESE,123,0.0,0.0,90,0.00,,,0.00,weatherlink.com 1.10,2013-02-07 03:37:00,
2013-02-06 22:52:00,29.6,27.0,30.25,ESE,123,0.0,0.0,90,0.00,,,0.00,weatherlink.com 1.10,2013-02-07 03:52:00,
2013-02-06 23:07:00,29.7,27.0,30.23,ESE,123,0.0,0.0,90,0.00,,,0.00,weatherlink.com 1.10,2013-02-07 04:07:00,
2013-02-06 23:22:00,30.2,27.0,30.23,SSE,161,0.0,2.0,89,0.00,,,0.00,weatherlink.com 1.10,2013-02-07 04:22:00,
2013-02-06 23:37:00,30.7,28.0,30.22,SSE,161,0.0,0.0,88,0.00,,,0.00,weatherlink.com 1.10,2013-02-07 04:37:00,
2013-02-06 23:52:00,31.1,28.0,30.22,SSE,161,1.0,1.0,87,0.00,,,0.00,weatherlink.com 1.10,2013-02-07 04:52:00,